www.pogodaiklimat.ru
ПОГОДА в Галлапе
Время
и дата
20:53 28.01
21:53 28.01
22:53 28.01
23:53 28.01
00:53 29.01
01:53 29.01
02:53 29.01
03:53 29.01
04:53 29.01
05:53 29.01
06:53 29.01
07:53 29.01
08:53 29.01
09:53 29.01
10:53 29.01
11:53 29.01
12:53 29.01
13:53 29.01
14:53 29.01
15:53 29.01
16:53 29.01
17:53 29.01
18:53 29.01
19:53 29.01
20:53 29.01
21:53 29.01
22:53 29.01
23:53 29.01
00:53 30.01
01:53 30.01
02:53 30.01
03:53 30.01
04:53 30.01
05:53 30.01
06:53 30.01
07:53 30.01
08:53 30.01
09:53 30.01
10:53 30.01
11:53 30.01
12:53 30.01
13:53 30.01
14:53 30.01
15:53 30.01
16:53 30.01
17:53 30.01
18:53 30.01
19:53 30.01
Ветер
(напр.,м/с)
Видим. Явления Облачность Т
(С)
Тd
(С)
f
(%)
Тe
(С)
Тes
(С)
Комфортность P
(гПа)
Po
(гПа)
Тmin
(С)
Tmax
(С)
R
(мм)
R24
(мм)
S
(см)
штиль 0 16 км ясно -7.8 -10.6 80 -8 -8 1022.7 798.7
штиль 0 16 км ясно -5.6 -9.4 75 -6 -6 1019.0 798.7
В 3 16 км ясно -8.3 -10.6 83 -14 -14 1018.1 798.5 -8.9 +3.3
СВ 3 16 км ясно -8.9 -11.1 84 -15 -15 1017.7 798.5
штиль 0 16 км ясно -8.9 -11.1 84 -9 -9 1017.3 798.2
СВ 2 16 км ясно -11.1 -12.8 87 -16 -16 1018.0 797.9
СВ 2 16 км ясно -10.6 -12.8 84 -15 -15 1017.3 797.9
В 2 16 км ясно -10.6 -12.8 84 -15 -15 1017.3 797.9
В 2 16 км ясно -11.7 -14.4 80 -16 -16 1018.2 797.7 -12.8 -7.8
штиль 0 16 км ясно -11.7 -13.9 84 -12 -12 1019.3 797.4
штиль 0 16 км ясно -12.2 -14.4 84 -12 -12 1021.0 797.7
СВ 2 16 км ясно -12.2 -14.4 84 -17 -17 1022.1 797.7
штиль 0 16 км ясно -6.1 -9.4 77 -7 -6 1021.0 797.9
З 2 16 км ясно -1.1 -7.2 63 -4 -2 1018.3 798.2
ЮЗ 7
{9}
16 км ясно +4.4 -8.3 39 0 +1 1016.3 797.9 -12.8 +4.4
З 7 16 км ясно +5.0 -8.3 38 0 +2 1015.1 796.9
ЮЗ 6 16 км ясно +6.7 -7.8 35 +3 +6 1013.3 796.1
ЮЗ 8
{12}
16 км ясно +7.2 -8.3 32 +3 +4 1013.0 795.5
ЮЗ 8
{14}
16 км ясно +7.2 -8.3 32 +3 +4 1012.9 795.3
ЮЗ 7
{12}
16 км ясно +7.2 -8.3 32 +3 +4 1013.1 795.5
ЮЗ 6
{11}
16 км ясно +6.1 -8.9 33 +2 +3 1014.2 795.5 +4.4 +7.8
ЮЗ 5 16 км ясно +3.3 -8.9 40 -1 -1 1015.7 795.8
ЮЗ 6 16 км ясно +2.2 -10.0 40 -3 -3 1017.2 796.3
ЮЗ 6
{10}
16 км ясно +2.8 -10.6 37 -2 -2 1017.1 796.6
Ю 2 16 км ясно +1.1 -10.0 43 -2 -2 1015.6 796.9
штиль 0 16 км ясно -2.8 -10.0 58 -3 -3 1015.5 797.1
Ю 4 16 км ясно -2.2 -10.6 53 -8 -8 1013.4 797.4 -5.0 +6.1
Ю 4 16 км ясно -2.8 -11.1 53 -8 -8 1013.4 797.7
Ю 2 16 км ясно -3.3 -10.6 57 -7 -7 1012.8 797.4
ЮВ 2 16 км ясно -4.4 -11.1 59 -8 -8 1012.8 797.4
штиль 0 16 км ясно -5.6 -10.6 68 -6 -6 1013.7 797.7
штиль 0 16 км ясно -6.1 -10.6 70 -7 -7 1014.3 797.9
штиль 0 16 км ясно -4.4 -9.4 68 -5 -5 1014.1 798.2 -6.7 -1.1
штиль 0 16 км ясно -6.1 -10.0 74 -7 -7 1016.5 798.5
Ю 4 16 км ясно -5.0 -8.9 74 -11 -11 1017.0 798.7
ЮВ 2 16 км ясно -5.0 -8.3 78 -9 -9 1017.5 799.3
штиль 0 16 км ясно -0.6 -6.7 63 -1 -1 1016.7 799.5
ЮЗ 6 16 км ясно +2.2 -6.1 54 -3 -2 1017.4 799.8
ЮЗ 6 16 км ясно +3.9 -6.7 46 -1 +1 1016.4 799.8 -6.7 +3.9
ЮЗ 7 16 км ясно +4.4 -6.7 44 -1 +1 1015.7 799.3
З 9
{12}
16 км ясно +4.4 -7.2 43 -1 0 1014.7 798.2
ЮЗ 6
{11}
16 км ясно +5.6 -6.7 41 +1 +4 1014.3 797.9
ЮЗ 6 16 км ясно +5.6 -6.1 43 +1 +4 1014.7 797.9
З 5 16 км ясно +5.6 -6.1 43 +2 +4 1014.3 797.4
З 4 16 км ясно +5.0 -6.1 44 +2 +3 1013.9 797.7 +3.9 +6.1
ЮЗ 4 16 км ясно +2.8 -7.2 48 -1 -1 1016.4 797.9
ЮЗ 3 16 км ясно +0.6 -7.2 56 -3 -3 1017.4 798.5
штиль 0 16 км ясно -1.7 -7.2 66 -2 -2 1018.5 798.5
Местоположение метеостанции Gallup Municipal Airport: широта 35.5111 долгота -108.7894 высота над уровнем моря 1973 м.
В архиве по умолчанию представлена погода в Галлапе за последние 1-2 суток. Обновление информации о фактической погоде в базе происходит ежечасно! Архивные данные за месяц целиком и за предыдущие месяцы Вы можете получить, выбрав интересующий диапазон дат из раскрывающегося списка и нажав кнопку "Ввод!".
Внимание! Архив погоды МЕТАР в базе сайта по станциям, не включенным в климатический монитор, хранится не более 60 дней. Нет смысла пытаться выбрать более раннюю дату.
*Определитесь, кто Вы:
Внимание! Время в таблицах - местное (без учета летнего времени). Для получения всемирного времени необходимо вычесть поправку, которая равна -7 ч.
Смотрите также архив погоды в соседних городах и на ближайших метеорологических станциях:
Партнеры нашего сайта:      
Пояснения к столбцам:
  • Ветер - указаны скорость ветра в м/с - средняя за 10 мин, порывы в срок и между сроками (в фигурных скобках) и направление, откуда дует ветер: С - северный,
  • СВ - северо-восточный, В - восточный, ЮВ - юго-восточный, Ю - южный, ЮЗ - юго-западный, З - западный, СЗ - северо-западный.
  • Видимость - горизонтальная дальность видимости в метрах или километрах. При видимости от 1 до 10 км при отсутствии осадков обычно наблюдается дымка, при ухудшении видимости до 1 км и менее - туман. В сухую погоду видимость может ухудшаться дымом, пылью или мглою.
  • Явления - указаны атмосферные явления, наблюдавшиеся в срок или в последний час перед сроком; фигурными скобками обозначены явления, наблюдавшиеся между сроками (за 1-3 часа до срока); квадратными скобками обозначены град или гололедные отложения с указанием их диаметра в мм.
  • Облачность - указаны через наклонную черту общая и нижняя облачность в баллах и высота нижней границы облаков в метрах; квадратными скобками обозначены формы облаков: Ci - перистые, Cs - перисто-слоистые, Cc - перисто-кучевые, Ac - высококучевые, As - высокослоистые, Sc - слоисто-кучевые, Ns - слоисто-дождевые, Cu - кучевые, Cb - кучево-дождевые. Подробнее классификацию облаков см. в Атласе облаков (PDF).
  • T - Температура воздуха - температура, измеренная на высоте 2 м над землей.
  • Td - Температура точки росы - температура, при понижении до которой содержащийся в воздухе водяной пар достигнет насыщения.
  • f - Относительная влажность воздуха - влажноcть воздуха, измеренная на высоте 2 м над землей.
  • Te - Эффективная температура - температура, которую ощущает одетый по сезону человек в тени. Характеристика душности погоды. При расчете учитывается влияние влажности воздуха и скорости ветра на теплоощущения человека.
  • Tes - Эффективная температура на солнце - температура, которую ощущает человек, с поправкой на солнечный нагрев. Характеристика знойности погоды. Зависит от высоты солнца над горизонтом, облачности и скорости ветра. Ночью, в пасмурную погоду, а также при ветре 12 м/с и более поправка равна нулю.
  • P - Атмосферное давление - приведенное к уровню моря атмосферное давление.
  • Po - Атмосферное давление - измеренное на уровне метеостанции атмосферное давление.
  • Tmin - Минимальная температура - минимум температуры воздуха на высоте 2 м над землей.
  • Tmax - Максимальная температура - максимум температуры воздуха на высоте 2 м над землей.
  • R - Количество осадков - Количество выпавших осадков за период времени, мм. При наведении курсора мыши на число - период времени, за который выпало указанное количество осадков.
  • R24 - Количество осадков - Количество выпавших осадков за 24 часа, мм.
  • S - Снежный покров - Высота снежного покрова, см. При наведении курсора мыши на число - состояние снежного покрова и степень покрытия местности в баллах.